Tracking 20942 objects as of 9-Jul-2020
HD Live streaming from Space Station
objects crossing your sky now

FENGYUN 1C DEB

Track FENGYUN 1C DEB now!
10-day predictions


NORAD ID: 30637
Int'l Code: 1999-025ANU
Perigee: 619.0 km
Apogee: 739.4 km
Inclination: 99.0 °
Period: 98.2 minutes
Semi major axis: 7050 km
RCS: 0.039 m2 (small)
Launch date: May 10, 1999
Source: People's Republic of China (PRC)
Launch site: Taiyaun Space Center, China (TSC)

Note: This is SATELLITE DEBRIS
aabbcc
Your satellite tracking list
Your tracking list is empty




NASA's NSSDC Master Catalog

Two Line Element Set (TLE):
1 30637U 99025ANU 20191.27439699  .00000877  00000-0  16077-3 0  9992
2 30637  98.9635 197.5021 0085358 279.9104 208.9134 14.66558173710817
Source of the keplerian elements: AFSPC